{"data":{"norad_id":41034,"intl_designator":"2015-067A","name":"LAOSAT 1","alt_names":[],"object_type":"PAYLOAD","status":"ACTIVE","operator":null,"country":"LAOS","launch_date":"2015-11-20","launch_site_code":"XICLF","launch_vehicle":null,"mission":null,"orbit_class":"UNKNOWN","rcs_meters":56.7416,"size_class":null,"mass_kg":null,"dimensions":null,"purposes":["comms"],"wikipedia_slug":null,"has_3d_model":false,"image_url":null,"decayed_at":null,"tle_current":{"epoch":"2026-09-19T22:42:48.280896Z","epoch_age_seconds":69884,"freshness":"FRESH","line1":"1 41034U 15067A   26262.94639214 -.00000347  00000+0  00000+0 0  9990","line2":"2 41034   0.0409 346.8308 0002373 130.5965 350.6503  1.00270927 39814","mean_motion":1.00270927,"eccentricity":0.0002373,"inclination_deg":0.0409,"raan_deg":346.8308,"arg_perigee_deg":130.5965,"mean_anomaly_deg":350.6503,"bstar":0,"rev_number":3981,"period_min":1436.1091924482,"perigee_km":35776.82974348,"apogee_km":35796.841239424,"semimajor_km":42164.972491452,"source":"CELESTRAK","updated_at":"2026-09-20T09:00:35.221439Z"}}}